| time (UTC) | temp F | wind direction | speed knots | gust knots | rain 1hr in | rain 24hr in | rain mn in | humidity % | barometer mb |
| 20260506182216 | 62 | 302 | 0.0 | 3.5 | 0.00 | 0.00 | 0.00 | 81 | 1023.5 |
| 20260506181216 | 62 | 249 | 0.0 | 3.5 | 0.00 | 0.00 | 0.00 | 80 | 1023.5 |
| 20260506175216 | 61 | 242 | 1.7 | 2.6 | 0.00 | 0.00 | 0.00 | 83 | 1023.5 |
| 20260506174216 | 60 | 242 | 0.0 | 2.6 | 0.00 | 0.00 | 0.00 | 83 | 1023.5 |
| 20260506173216 | 60 | 241 | 1.7 | 3.5 | 0.00 | 0.00 | 0.00 | 83 | 1023.5 |
| 20260506172216 | 60 | 240 | 0.0 | 2.6 | 0.00 | 0.00 | 0.00 | 84 | 1023.7 |
| 20260506171217 | 59 | 240 | 0.0 | 0.0 | 0.00 | 0.00 | 0.00 | 87 | 1023.6 |
| 20260506170216 | 58 | 240 | 0.0 | 0.0 | 0.00 | 0.00 | 0.00 | 87 | 1023.6 |
| 20260506165217 | 57 | 240 | 0.0 | 2.6 | 0.00 | 0.00 | 0.00 | 88 | 1023.8 |
| 20260506164216 | 57 | 251 | 0.0 | 2.6 | 0.00 | 0.00 | 0.00 | 89 | 1023.7 |
| 20260506163216 | 56 | 251 | 0.0 | 2.6 | 0.00 | 0.00 | 0.00 | 90 | 1023.6 |
| 20260506162216 | 56 | 251 | 0.0 | 2.6 | 0.00 | 0.00 | 0.00 | 91 | 1023.6 |
| 20260506161216 | 56 | 251 | 0.0 | 2.6 | 0.00 | 0.00 | 0.00 | 91 | 1023.6 |
| 20260506160216 | 56 | 250 | 0.0 | 1.7 | 0.00 | 0.00 | 0.00 | 92 | 1023.6 |
| 20260506155216 | 55 | 219 | 0.0 | 0.0 | 0.00 | 0.00 | 0.00 | 92 | 1023.6 |
| 20260506154216 | 55 | 219 | 0.0 | 0.0 | 0.00 | 0.00 | 0.00 | 92 | 1023.7 |
| 20260506153216 | 55 | 219 | 0.0 | 0.0 | 0.00 | 0.00 | 0.00 | 92 | 1023.7 |
| 20260506152216 | 54 | 219 | 0.0 | 0.0 | 0.00 | 0.00 | 0.00 | 93 | 1023.6 |
| 20260506151216 | 54 | 219 | 0.0 | 0.0 | 0.00 | 0.00 | 0.00 | 93 | 1023.7 |
| 20260506150216 | 53 | 219 | 0.0 | 0.0 | 0.00 | 0.00 | 0.00 | 93 | 1023.7 |
| 20260506145216 | 53 | 219 | 0.0 | 0.0 | 0.00 | 0.00 | 0.00 | 94 | 1023.9 |
| 20260506144216 | 53 | 184 | 0.0 | 0.0 | 0.00 | 0.00 | 0.00 | 94 | 1023.8 |
| 20260506143216 | 53 | 184 | 0.0 | 0.0 | 0.00 | 0.00 | 0.00 | 94 | 1023.8 |
| 20260506142216 | 52 | 163 | 0.0 | 0.0 | 0.00 | 0.00 | 0.00 | 94 | 1023.5 |
| 20260506140216 | 52 | 150 | 0.0 | 0.0 | 0.00 | 0.00 | 0.00 | 94 | 1023.3 |
| 20260506135216 | 51 | 165 | 0.0 | 0.0 | 0.00 | 0.00 | 0.00 | 94 | 1023.4 |
| 20260506134216 | 51 | 165 | 0.0 | 0.0 | 0.00 | 0.00 | 0.00 | 94 | 1023.3 |
| 20260506131216 | 51 | 222 | 0.0 | 0.0 | 0.00 | 0.00 | 0.00 | 94 | 1023.2 |
| 20260506130216 | 51 | 222 | 0.0 | 0.0 | 0.00 | 0.00 | 0.00 | 93 | 1023.1 |
| 20260506125216 | 51 | 222 | 0.0 | 0.0 | 0.00 | 0.00 | 0.00 | 93 | 1023.0 |
| 20260506124216 | 51 | 222 | 0.0 | 0.0 | 0.00 | 0.00 | 0.00 | 93 | 1022.8 |
| 20260506123216 | 51 | 222 | 0.0 | 0.0 | 0.00 | 0.00 | 0.00 | 94 | 1022.8 |
| 20260506122216 | 51 | 222 | 0.0 | 0.0 | 0.00 | 0.00 | 0.00 | 94 | 1022.7 |
| 20260506121216 | 51 | 222 | 0.0 | 0.0 | 0.00 | 0.00 | 0.00 | 94 | 1022.7 |
| 20260506120216 | 50 | 222 | 0.0 | 0.0 | 0.00 | 0.00 | 0.00 | 94 | 1022.5 |
| 20260506114216 | 50 | 222 | 0.0 | 0.0 | 0.00 | 0.00 | 0.00 | 93 | 1022.4 |
| 20260506111216 | 49 | 222 | 0.0 | 0.0 | 0.00 | 0.00 | 0.00 | 93 | 1022.1 |
| 20260506110216 | 49 | 222 | 0.0 | 0.0 | 0.00 | 0.00 | 0.00 | 92 | 1022.0 |
| 20260506105216 | 49 | 222 | 0.0 | 0.0 | 0.00 | 0.00 | 0.00 | 92 | 1022.1 |
| 20260506104216 | 49 | 222 | 0.0 | 0.0 | 0.00 | 0.00 | 0.00 | 92 | 1022.0 |
| 20260506103216 | 49 | 222 | 0.0 | 0.0 | 0.00 | 0.00 | 0.00 | 91 | 1021.7 |
| 20260506102216 | 49 | 222 | 0.0 | 0.0 | 0.00 | 0.00 | 0.00 | 91 | 1021.7 |
| 20260506101216 | 49 | 222 | 0.0 | 0.0 | 0.00 | 0.00 | 0.00 | 91 | 1021.6 |
| 20260506100216 | 50 | 222 | 0.0 | 0.0 | 0.00 | 0.00 | 0.00 | 91 | 1021.7 |
| 20260506095216 | 50 | 222 | 0.0 | 0.0 | 0.00 | 0.00 | 0.00 | 90 | 1021.3 |
| 20260506094216 | 50 | 222 | 0.0 | 0.0 | 0.00 | 0.00 | 0.00 | 90 | 1021.3 |
| 20260506093216 | 50 | 222 | 0.0 | 0.0 | 0.00 | 0.00 | 0.00 | 90 | 1021.2 |
| 20260506092216 | 51 | 222 | 0.0 | 0.0 | 0.00 | 0.00 | 0.00 | 89 | 1021.3 |
| 20260506091216 | 51 | 222 | 0.0 | 0.0 | 0.00 | 0.00 | 0.00 | 90 | 1021.2 |
| 20260506090216 | 52 | 222 | 0.0 | 0.0 | 0.00 | 0.00 | 0.00 | 90 | 1021.3 |
| 20260506085216 | 52 | 222 | 0.0 | 0.0 | 0.00 | 0.00 | 0.00 | 90 | 1021.1 |
| 20260506084216 | 52 | 222 | 0.0 | 0.0 | 0.00 | 0.00 | 0.00 | 89 | 1021.1 |
| 20260506083216 | 53 | 222 | 0.0 | 0.0 | 0.00 | 0.00 | 0.00 | 89 | 1021.1 |
| 20260506082216 | 53 | 222 | 0.0 | 0.0 | 0.00 | 0.00 | 0.00 | 89 | 1021.0 |
| 20260506081216 | 54 | 222 | 0.0 | 0.9 | 0.00 | 0.00 | 0.00 | 89 | 1021.0 |
| 20260506080216 | 54 | 222 | 0.0 | 2.6 | 0.00 | 0.00 | 0.00 | 88 | 1021.1 |
| 20260506073216 | 54 | 222 | 0.0 | 3.5 | 0.00 | 0.00 | 0.00 | 87 | 1020.4 |
| 20260506071216 | 55 | 223 | 0.0 | 6.1 | 0.00 | 0.00 | 0.00 | 87 | 1020.1 |
| 20260506070216 | 55 | 223 | 0.0 | 4.3 | 0.00 | 0.00 | 0.00 | 86 | 1020.1 |
| 20260506062216 | 56 | 223 | 0.0 | 3.5 | 0.00 | 0.00 | 0.00 | 85 | 1019.5 |
| 20260506061216 | 56 | 223 | 0.0 | 5.2 | 0.00 | 0.00 | 0.00 | 84 | 1019.4 |
| 20260506060215 | 56 | 223 | 1.7 | 4.3 | 0.00 | 0.00 | 0.00 | 84 | 1019.4 |
| 20260506051216 | 58 | 217 | 0.0 | 5.2 | 0.00 | 0.00 | 0.00 | 81 | 1018.7 |
| 20260506050215 | 59 | 217 | 0.0 | 4.3 | 0.00 | 0.00 | 0.00 | 81 | 1018.8 |
| 20260506043215 | 60 | 217 | 0.0 | 4.3 | 0.00 | 0.00 | 0.00 | 79 | 1018.3 |
| 20260506042215 | 60 | 218 | 0.0 | 3.5 | 0.00 | 0.00 | 0.00 | 79 | 1018.0 |
| 20260506041215 | 61 | 219 | 0.0 | 5.2 | 0.00 | 0.00 | 0.00 | 78 | 1018.1 |
| 20260506040216 | 61 | 219 | 2.6 | 6.1 | 0.00 | 0.00 | 0.00 | 77 | 1017.8 |
| 20260506035215 | 62 | 218 | 0.0 | 4.3 | 0.00 | 0.00 | 0.00 | 76 | 1017.6 |
| 20260506034215 | 62 | 217 | 0.0 | 1.7 | 0.00 | 0.00 | 0.00 | 76 | 1017.3 |
| 20260506033216 | 63 | 217 | 0.0 | 5.2 | 0.00 | 0.00 | 0.00 | 75 | 1017.2 |
| 20260506032216 | 64 | 217 | 0.9 | 6.1 | 0.00 | 0.00 | 0.00 | 74 | 1017.1 |
| 20260506031215 | 64 | 217 | 0.0 | 3.5 | 0.00 | 0.00 | 0.00 | 74 | 1017.0 |
| 20260506030216 | 65 | 217 | 0.0 | 5.2 | 0.00 | 0.00 | 0.00 | 72 | 1017.0 |
| 20260506025216 | 66 | 217 | 0.0 | 4.3 | 0.00 | 0.00 | 0.00 | 71 | 1016.9 |
| 20260506024215 | 67 | 217 | 0.0 | 4.3 | 0.00 | 0.00 | 0.00 | 70 | 1016.7 |
| 20260506022215 | 69 | 218 | 1.7 | 4.3 | 0.00 | 0.00 | 0.00 | 67 | 1016.4 |
| 20260506021216 | 70 | 218 | 0.0 | 2.6 | 0.00 | 0.00 | 0.00 | 67 | 1016.4 |
| 20260506020215 | 70 | 218 | 0.0 | 0.9 | 0.00 | 0.00 | 0.00 | 66 | 1016.2 |
| 20260506015216 | 70 | 218 | 0.0 | 0.0 | 0.00 | 0.00 | 0.00 | 66 | 1016.0 |
| 20260506014215 | 70 | 218 | 0.0 | 4.3 | 0.00 | 0.00 | 0.00 | 65 | 1015.9 |
| 20260506013215 | 71 | 218 | 0.0 | 2.6 | 0.00 | 0.00 | 0.00 | 65 | 1016.0 |
| 20260506012216 | 71 | 218 | 0.0 | 5.2 | 0.00 | 0.00 | 0.00 | 65 | 1016.0 |
| 20260506011215 | 71 | 217 | 0.0 | 6.1 | 0.00 | 0.00 | 0.00 | 65 | 1015.9 |
| 20260506010215 | 72 | 223 | 0.0 | 4.3 | 0.00 | 0.00 | 0.00 | 64 | 1015.9 |
| 20260506005216 | 72 | 223 | 0.0 | 5.2 | 0.00 | 0.00 | 0.00 | 65 | 1015.8 |
| 20260506004216 | 73 | 225 | 0.0 | 5.2 | 0.00 | 0.00 | 0.00 | 63 | 1015.8 |
| 20260506003215 | 73 | 230 | 0.0 | 1.7 | 0.00 | 0.00 | 0.00 | 64 | 1015.8 |
| 20260506002216 | 73 | 230 | 0.0 | 7.0 | 0.00 | 0.00 | 0.00 | 63 | 1015.8 |
| 20260506001216 | 73 | 230 | 1.7 | 5.2 | 0.00 | 0.00 | 0.00 | 64 | 1015.9 |
| 20260506000215 | 73 | 231 | 3.5 | 8.7 | 0.00 | 0.00 | 0.00 | 65 | 1015.9 |
| 20260505235216 | 73 | 225 | 2.6 | 6.1 | 0.00 | 0.00 | 0.00 | 64 | 1015.9 |
| 20260505234215 | 73 | 225 | 1.7 | 7.0 | 0.00 | 0.00 | 0.00 | 62 | 1015.9 |
| 20260505233215 | 74 | 228 | 0.0 | 7.8 | 0.00 | 0.00 | 0.00 | 62 | 1015.8 |
| 20260505232215 | 75 | 228 | 0.0 | 7.8 | 0.00 | 0.00 | 0.00 | 60 | 1016.0 |
| 20260505231215 | 75 | 228 | 2.6 | 9.6 | 0.00 | 0.00 | 0.00 | 60 | 1016.0 |
| 20260505230215 | 76 | 31 | 0.0 | 3.5 | 0.00 | 0.00 | 0.00 | 57 | 1016.1 |
| 20260505225215 | 74 | 32 | 0.9 | 3.5 | 0.00 | 0.00 | 0.00 | 60 | 1016.1 |
| 20260505224215 | 73 | 32 | 0.0 | 2.6 | 0.00 | 0.00 | 0.00 | 60 | 1016.2 |
| 20260505222215 | 73 | 32 | 0.0 | 2.6 | 0.00 | 0.00 | 0.00 | 61 | 1016.3 |
| 20260505221216 | 72 | 32 | 1.7 | 4.3 | 0.00 | 0.00 | 0.00 | 63 | 1016.4 |
| 20260505220216 | 72 | 32 | 0.0 | 5.2 | 0.00 | 0.00 | 0.00 | 61 | 1016.5 |
| 20260505213215 | 71 | 71 | 0.0 | 4.3 | 0.00 | 0.00 | 0.00 | 62 | 1016.7 |
| 20260505212215 | 71 | 78 | 0.0 | 4.3 | 0.00 | 0.00 | 0.00 | 62 | 1016.8 |
| 20260505210215 | 70 | 69 | 0.0 | 5.2 | 0.00 | 0.00 | 0.00 | 65 | 1016.9 |
| 20260505203215 | 69 | 360 | 0.0 | 3.5 | 0.00 | 0.00 | 0.00 | 66 | 1017.1 |
| 20260505202215 | 69 | 348 | 3.5 | 6.1 | 0.00 | 0.00 | 0.00 | 65 | 1017.1 |
| 20260505201215 | 68 | 355 | 0.0 | 6.1 | 0.00 | 0.00 | 0.00 | 68 | 1017.1 |
| 20260505195216 | 66 | 11 | 0.0 | 4.3 | 0.00 | 0.00 | 0.00 | 69 | 1017.4 |
| 20260505194215 | 65 | 9 | 4.3 | 7.0 | 0.00 | 0.00 | 0.00 | 70 | 1017.5 |
| 20260505193215 | 65 | 64 | 1.7 | 3.5 | 0.00 | 0.00 | 0.00 | 72 | 1017.5 |
| 20260505192215 | 65 | 65 | 3.5 | 3.5 | 0.00 | 0.00 | 0.00 | 73 | 1017.5 |
| 20260505191215 | 64 | 65 | 0.0 | 3.5 | 0.00 | 0.00 | 0.00 | 71 | 1017.5 |
| 20260505190215 | 64 | 65 | 1.7 | 4.3 | 0.00 | 0.00 | 0.00 | 73 | 1017.6 |
| 20260505185215 | 63 | 80 | 2.6 | 6.1 | 0.00 | 0.00 | 0.00 | 72 | 1017.7 |
| 20260505184215 | 63 | 228 | 1.7 | 3.5 | 0.00 | 0.00 | 0.00 | 71 | 1017.7 |
| 20260505183215 | 63 | 232 | 0.0 | 0.9 | 0.00 | 0.00 | 0.00 | 71 | 1017.8 |